This demonstration page uses our WeatherBlox Daily Observations layout. Learn more.

Left ArrowRight Arrow

Hourly Observations for March 29, 2017

Temp ( °F °C ) Dew Point ( °F °C ) Humidity (%) Winds ( mph kmh ) Pressure ( in mb ) Visibility ( mi km ) Precip ( " mm )
12:52 am 00:52 Cloudy 57 13.9 49 9.4 74 74 ESE 15 24 29.88 1012 10 16 0.00 0.00
1:52 am 01:52 Mostly Cloudy 56 13.3 49 9.4 77 77 ESE 20 31 29.86 1011 10 16 0.00 0.00
2:52 am 02:52 Mostly Cloudy 56 13.3 49 9.4 77 77 ESE 23 37 29.81 1010 10 16 0.00 0.00
3:52 am 03:52 Cloudy with Light Rain 55 12.8 50 10 83 83 SE 22 35 29.81 1009 10 16 0.00 0.03
4:48 am 04:48 Cloudy 55 13 50 10 82 82 SE 18 30 29.83 1010 10 16 0.00 0.00
4:52 am 04:52 Cloudy 55 12.8 50 10 83 83 SE 21 33 29.81 1010 10 16 0.00 0.03
5:52 am 05:52 Cloudy 55 12.8 50 10 83 83 SE 21 33 29.84 1011 10 16 0.00 0.00
6:52 am 06:52 Partly Cloudy 55 12.8 50 10 83 83 SE 18 30 29.81 1009 10 16 0.00 0.00
7:52 am 07:52 Partly Cloudy 56 13.3 51 10.6 84 84 SE 17 28 29.81 1010 10 16 0.00 0.00
8:52 am 08:52 Mostly Cloudy 57 13.9 52 11.1 83 83 SE 23 37 29.79 1009 10 16 0.00 0.00
9:11 am 09:11 Partly Cloudy 57 13.9 52 11.1 83 83 SE 18 30 29.80 1009 10 16 0.00 0.00
9:52 am 09:52 Mostly Cloudy 58 14.4 53 11.7 84 84 SSE 20 31 29.81 1009 10 16 0.00 0.00
10:52 am 10:52 Cloudy with Light Rain 58 14.4 54 12.2 87 87 SE 23 37 29.78 1008 6 10 0.01 0.25
11:52 am 11:52 Partly Cloudy 63 17.2 57 13.9 81 81 SE 25 41 29.72 1006 10 16 0.00 0.03
12:52 pm 12:52 Mostly Sunny 68 20 59 15 73 73 SE 24 39 29.69 1006 10 16 0.01 0.25
1:52 pm 13:52 Mostly Sunny 69 20.6 58 14.4 68 68 SSE 24 39 29.67 1005 10 16 0.00 0.00
2:52 pm 14:52 Mostly Cloudy 70 21.1 58 14.4 66 66 SSE 21 33 29.69 1005 10 16 0.00 0.00
3:52 pm 15:52 Cloudy 71 21.7 59 15 66 66 SSE 17 28 29.68 1005 10 16 0.00 0.00
4:52 pm 16:52 Mostly Cloudy 73 22.8 57 13.9 57 57 S 21 33 29.67 1005 10 16 0.00 0.00
5:52 pm 17:52 Cloudy 71 21.7 57 13.9 61 61 S 12 19 29.65 1004 10 16 0.00 0.00
6:52 pm 18:52 Partly Cloudy 69 20.6 58 14.4 68 68 S 15 24 29.66 1004 10 16 0.00 0.00
7:52 pm 19:52 Partly Cloudy 64 17.8 58 14.4 81 81 S 7 11 29.65 1004 10 16 0.00 0.00
8:52 pm 20:52 Clear 64 17.8 58 14.4 81 81 S 10 17 29.63 1004 10 16 0.00 0.00
9:52 pm 21:52 Clear 63 17.2 58 14.4 84 84 SSE 12 19 29.63 1004 10 16 0.00 0.00
10:52 pm 22:52 Mostly Cloudy with Light Rain 63 17.2 56 13.3 78 78 W 16 26 29.64 1004 10 16 0.00 0.03
10:59 pm 22:59 Mostly Cloudy with Rain 62 16.7 56 13.3 80 80 W 12 19 29.62 1003 7 11 0.02 0.51
11:52 pm 23:52 Mostly Cloudy 59 15 53 11.7 81 81 WSW 5 7 29.64 1004 10 16 0.03 0.76

Powered by AerisWeather